{"data":{"norad_id":59870,"intl_designator":"2024-098N","name":"STARLINK-31945","alt_names":[],"object_type":"PAYLOAD","status":"ACTIVE","operator":null,"country":"US","launch_date":"2024-05-24","launch_site_code":"AFETR","launch_vehicle":null,"mission":null,"orbit_class":"UNKNOWN","rcs_meters":null,"size_class":null,"mass_kg":null,"dimensions":null,"purposes":["comms"],"wikipedia_slug":null,"has_3d_model":false,"image_url":null,"decayed_at":null,"tle_current":{"epoch":"2026-09-21T15:45:16.105824Z","epoch_age_seconds":74619,"freshness":"FRESH","line1":"1 59870U 24098N   26264.65643641  .00000133  00000+0  14346-4 0  9995","line2":"2 59870  42.9997 247.2145 0001211 282.9360  77.1357 15.27577339131869","mean_motion":15.27577339,"eccentricity":0.0001211,"inclination_deg":42.9997,"raan_deg":247.2145,"arg_perigee_deg":282.936,"mean_anomaly_deg":77.1357,"bstar":1.4346e-5,"rev_number":13186,"period_min":94.266912923877,"perigee_km":482.22617344135,"apogee_km":483.88795464367,"semimajor_km":6861.1940640425,"source":"CELESTRAK","updated_at":"2026-09-22T09:00:49.102799Z"}}}